Anoka County, MN

7:34 PM CDT on June 28, 2017 (GMT -0500)
Anoka County / Blaine Airport

Weather History for KANE - November, 2012

Change the Weather History Date:

Thursday, November 15, 2012

  Actual Average Record
Temperature  
Mean Temperature 38 °F -  
Max Temperature 51 °F 39 °F 64 °F (2001)
Min Temperature 26 °F 24 °F 1 °F (2014)
Degree Days  
Heating Degree Days 26    
Moisture  
Dew Point 28 °F    
Average Humidity 65    
Maximum Humidity 87    
Minimum Humidity 44    
Precipitation  
Precipitation 0.00 in - - ()
Sea Level Pressure  
Sea Level Pressure 30.23 in    
Wind  
Wind Speed 5 mph (SW)    
Max Wind Speed 12 mph    
Max Gust Speed -    
Visibility 10 miles    
Events      
Averages and records for this station are not official NWS values.
T = Trace of Precipitation, MM = Missing Value Source: NWS Daily Summary

Daily Weather History Graph

Daily Weather History Graph

Search for Another Location

Airport or City:

Trip Planner

Search our weather history database for the weather conditions in past years. The results will help you decide how hot, cold, wet, or windy it might be!

Date:

Astronomy

Nov. 15, 2012 Rise Set
Actual Time 7:11 AM CST 4:42 PM CST
Civil Twilight 6:39 AM CST 5:14 PM CST
Nautical Twilight 6:03 AM CST 5:50 PM CST
Astronomical Twilight 5:29 AM CST 6:25 PM CST
Moon 9:11 AM CST (11/15) 6:31 PM CST (11/15)
Length of Visible Light 10h 35m
Length of Day
9h 31m
Waxing Crescent, 5% of the Moon is Illuminated
Nov 15
Waxing Crescent
Nov 20
First Quarter
Nov 28
Full
Dec 6
Last Quarter
Dec 13
New

Hourly Weather History & Observations

Time (CST) Temp. Windchill Dew Point Humidity Pressure Visibility Wind Dir Wind Speed Gust Speed Precip Events Conditions
12:14 AM 42.8 °F - 35.6 °F 76% 30.13 in 10.0 mi Calm Calm - N/A   Overcast
12:34 AM 42.8 °F 38.6 °F 35.6 °F 76% 30.13 in 10.0 mi South 6.9 mph - N/A   Overcast
12:54 AM 42.8 °F 38.6 °F 35.6 °F 76% 30.12 in 10.0 mi South 6.9 mph - N/A   Overcast
1:14 AM 42.8 °F 38.6 °F 35.6 °F 76% 30.12 in 10.0 mi South 6.9 mph - N/A   Overcast
1:34 AM 42.8 °F 38.6 °F 35.6 °F 76% 30.12 in 10.0 mi South 6.9 mph - N/A   Overcast
1:54 AM 42.8 °F 38.0 °F 35.6 °F 76% 30.12 in 10.0 mi South 8.1 mph - N/A   Overcast
2:14 AM 42.8 °F 38.6 °F 35.6 °F 76% 30.12 in 10.0 mi South 6.9 mph - N/A   Overcast
2:34 AM 42.8 °F 39.3 °F 33.8 °F 70% 30.13 in 10.0 mi SSE 5.8 mph - N/A   Overcast
2:53 AM 42.8 °F 38.0 °F 33.8 °F 70% 30.12 in 10.0 mi SSE 8.1 mph - N/A   Overcast
3:14 AM 42.8 °F 41.1 °F 33.8 °F 70% 30.11 in 10.0 mi SSE 3.5 mph - N/A   Overcast
3:34 AM 42.8 °F 40.1 °F 33.8 °F 70% 30.11 in 10.0 mi SSE 4.6 mph - N/A   Overcast
3:54 AM 42.8 °F 41.1 °F 33.8 °F 70% 30.11 in 10.0 mi SSE 3.5 mph - N/A   Mostly Cloudy
4:14 AM 42.8 °F 40.1 °F 33.8 °F 70% 30.11 in 10.0 mi SSE 4.6 mph - N/A   Overcast
4:34 AM 39.2 °F 35.9 °F 32.0 °F 75% 30.11 in 10.0 mi SSE 4.6 mph - N/A   Mostly Cloudy
4:54 AM 41.0 °F 37.1 °F 33.8 °F 76% 30.11 in 10.0 mi SSE 5.8 mph - N/A   Scattered Clouds
5:14 AM 42.8 °F 40.1 °F 33.8 °F 70% 30.12 in 10.0 mi SSE 4.6 mph - N/A   Mostly Cloudy
5:34 AM 41.0 °F 39.0 °F 33.8 °F 76% 30.12 in 10.0 mi South 3.5 mph - N/A   Mostly Cloudy
5:54 AM 39.2 °F 37.0 °F 32.0 °F 75% 30.12 in 10.0 mi SSE 3.5 mph - N/A   Mostly Cloudy
6:13 AM 39.2 °F - 32.0 °F 75% 30.13 in 10.0 mi Calm Calm - N/A   Overcast
6:34 AM 39.2 °F - 33.8 °F 81% 30.13 in 10.0 mi Calm Calm - N/A   Mostly Cloudy
6:50 AM 39.2 °F - 32.0 °F 75% 30.14 in 10.0 mi Calm Calm - N/A   Mostly Cloudy
6:54 AM 39.2 °F - 32.0 °F 75% 30.14 in 10.0 mi Calm Calm - N/A   Mostly Cloudy
7:45 AM 37.4 °F 34.9 °F 33.8 °F 87% 30.16 in 10.0 mi South 3.5 mph - N/A   Mostly Cloudy
8:45 AM 42.8 °F 39.3 °F 33.8 °F 70% 30.18 in 10.0 mi West 5.8 mph - N/A   Partly Cloudy
9:45 AM 46.4 °F 43.5 °F 33.8 °F 62% 30.20 in 10.0 mi West 5.8 mph - N/A   Clear
10:45 AM 48.2 °F - 33.8 °F 58% 30.22 in 10.0 mi NW 8.1 mph - N/A   Clear
11:45 AM 50.0 °F - 35.6 °F 58% 30.22 in 10.0 mi WNW 4.6 mph - N/A   Clear
12:45 PM 51.8 °F - 33.8 °F 50% 30.23 in 10.0 mi WNW 10.4 mph - N/A   Clear
2:50 PM 51.8 °F - 30.2 °F 44% 30.36 in 10.0 mi NW 11.5 mph - N/A   Clear
5:45 PM 39.2 °F 32.0 °F 19.4 °F 45% 30.36 in 10.0 mi NNW 11.5 mph - N/A   Clear
6:45 PM 37.4 °F 30.8 °F 17.6 °F 45% 30.38 in 10.0 mi NNW 9.2 mph - N/A   Clear
7:45 PM 33.8 °F 28.6 °F 15.8 °F 48% 30.40 in 10.0 mi NNW 5.8 mph - N/A   Clear
8:45 PM 32.0 °F 27.5 °F 15.8 °F 51% 30.42 in 10.0 mi NNW 4.6 mph - N/A   Clear
9:14 PM 32.0 °F 26.4 °F 15.8 °F 51% 30.42 in 10.0 mi NNW 5.8 mph - N/A   Clear
9:34 PM 30.2 °F 24.3 °F 14.0 °F 51% 30.43 in 10.0 mi North 5.8 mph - N/A   Clear
9:54 PM 28.4 °F 21.2 °F 14.0 °F 55% 30.44 in 10.0 mi North 6.9 mph - N/A   Clear
10:14 PM 28.4 °F 22.2 °F 14.0 °F 55% 30.44 in 10.0 mi North 5.8 mph - N/A   Clear
10:34 PM 26.6 °F 20.0 °F 14.0 °F 59% 30.44 in 10.0 mi North 5.8 mph - N/A   Clear
10:53 PM 28.4 °F 23.3 °F 14.0 °F 55% 30.45 in 10.0 mi North 4.6 mph - N/A   Clear
11:14 PM 28.4 °F 22.2 °F 12.2 °F 51% - 10.0 mi NNW 5.8 mph - N/A   Clear
11:34 PM 28.4 °F 23.3 °F 12.2 °F 51% 30.45 in 10.0 mi North 4.6 mph - N/A   Clear
11:54 PM 26.6 °F 21.2 °F 14.0 °F 59% 30.46 in 10.0 mi NNW 4.6 mph - N/A   Clear